EW0259 Weather Reports


time (UTC)temp
C
wind
direction
speed
KPH
gust
KPH
rain 1hr
cm
rain 24hr
cm
rain mn
cm
humidity
%
barometer
mb
20260902100727 14 70 0.0 0.0 0.00 0.03 0.03 93 1010.2
20260902100234 14 70 0.0 0.0 0.00 0.03 0.03 92 1010.2
20260902095721 14 70 0.0 0.0 0.03 0.03 0.03 92 1010.2
20260902095228 14 70 0.0 0.0 0.03 0.03 0.03 92 1010.2
20260902094734 14 70 0.0 0.0 0.03 0.03 0.03 92 1010.2
20260902094221 14 70 0.0 0.0 0.03 0.03 0.03 92 1010.3
20260902093728 14 70 0.0 0.0 0.03 0.03 0.03 92 1010.2
20260902093234 14 70 0.0 0.0 0.03 0.03 0.03 92 1010.3
20260902092725 14 70 0.0 0.0 0.03 0.03 0.03 92 1010.2
20260902092233 14 70 0.0 0.0 0.03 0.03 0.03 92 1010.4
20260902091739 15 70 0.0 0.0 0.03 0.03 0.03 92 1010.3
20260902091226 15 70 0.0 0.0 0.03 0.03 0.03 92 1010.4
20260902090753 15 70 0.0 0.0 0.03 0.03 0.03 92 1010.4
20260902090228 15 70 0.0 0.0 0.03 0.03 0.03 92 1010.5
20260902085735 15 70 0.0 0.0 0.00 0.00 0.00 92 1010.5
20260902085223 15 70 0.0 0.0 0.00 0.00 0.00 92 1010.6
20260902084729 15 70 0.0 0.0 0.00 0.00 0.00 92 1010.7
20260902084237 15 70 0.0 0.0 0.00 0.00 0.00 92 1010.7
20260902083804 15 70 0.0 0.0 0.00 0.00 0.00 91 1010.7
20260902083259 15 70 0.0 0.0 0.00 0.00 0.00 91 1010.8
20260902082734 15 70 0.0 0.0 0.00 0.00 0.00 91 1010.8
20260902082308 15 70 0.0 0.0 0.00 0.00 0.00 91 1010.8
20260902082231 15 70 0.0 0.0 0.00 0.00 0.00 91 1010.8
20260902081720 15 70 0.0 0.0 0.00 0.00 0.00 91 1010.8
20260902081227 15 70 0.0 0.0 0.00 0.00 0.00 91 1010.8
20260902080734 15 70 0.0 0.0 0.00 0.00 0.00 91 1010.8
20260902080302 15 70 0.0 0.0 0.00 0.00 0.00 91 1010.8
20260902075736 15 70 0.0 0.0 0.00 0.00 0.00 91 1010.8
20260902075224 15 70 0.0 0.0 0.00 0.00 0.00 91 1010.9
20260902074810 15 70 0.0 0.0 0.00 0.00 0.00 91 1010.8
20260902074225 15 70 0.0 0.0 0.00 0.00 0.00 91 1011.0
20260902073732 15 70 0.0 0.0 0.00 0.00 0.00 91 1011.0
20260902073239 15 70 0.0 1.6 0.00 0.00 0.00 90 1011.0
20260902072806 15 70 0.0 3.2 0.00 0.00 0.00 90 1011.1
20260902072223 15 127 0.0 0.0 0.00 0.00 0.00 91 1011.0
20260902071809 15 135 0.0 3.2 0.00 0.00 0.00 91 1011.1
20260902071306 15 135 0.0 3.2 0.00 0.00 0.00 91 1011.1
20260902070721 15 168 0.0 3.2 0.00 0.00 0.00 91 1011.2
20260902070232 15 113 0.0 3.2 0.00 0.00 0.00 91 1011.2
20260902065739 15 126 0.0 3.2 0.00 0.00 0.00 91 1011.2
20260902065227 15 126 1.6 3.2 0.00 0.00 0.00 91 1011.2
20260902064752 15 102 0.0 0.0 0.00 0.00 0.00 91 1011.2
20260902064227 15 102 0.0 0.0 0.00 0.00 0.00 91 1011.3
20260902063734 15 102 0.0 3.2 0.00 0.00 0.00 91 1011.4
20260902063221 15 102 0.0 3.2 0.00 0.00 0.00 91 1011.3
20260902062728 15 102 0.0 3.2 0.00 0.00 0.00 91 1011.4
20260902062237 15 102 1.6 3.2 0.00 0.00 0.00 91 1011.4
20260902061721 15 115 0.0 3.2 0.00 0.00 0.00 91 1011.5
20260902061228 15 119 0.0 3.2 0.00 0.00 0.00 91 1011.4
20260902060739 15 119 1.6 3.2 0.00 0.00 0.00 91 1011.4
20260902060306 15 55 0.0 3.2 0.00 0.00 0.00 92 1011.5
20260902055721 15 55 0.0 3.2 0.00 0.00 0.00 91 1011.5
20260902055309 15 141 0.0 0.0 0.00 0.00 0.00 92 1011.4
20260902055237 15 141 0.0 0.0 0.00 0.00 0.00 92 1011.4
20260902054723 15 141 0.0 0.0 0.00 0.00 0.00 92 1011.4
20260902054230 15 141 0.0 0.0 0.00 0.00 0.00 92 1011.4
20260902053737 15 141 0.0 3.2 0.00 0.00 0.00 92 1011.5
20260902053224 15 141 0.0 3.2 0.00 0.00 0.00 92 1011.5
20260902052731 15 117 0.0 3.2 0.00 0.00 0.00 92 1011.7
20260902052240 15 117 1.6 3.2 0.00 0.00 0.00 92 1011.7
20260902051725 15 70 0.0 3.2 0.00 0.00 0.00 92 1011.7
20260902051232 15 70 0.0 3.2 0.00 0.00 0.00 92 1011.7
20260902050800 15 70 0.0 3.2 0.00 0.00 0.00 92 1011.8
20260902050239 15 70 0.0 3.2 0.00 0.00 0.00 92 1011.8
20260902045726 15 64 0.0 3.2 0.00 0.00 0.00 92 1011.7
20260902045234 15 65 0.0 3.2 0.00 0.00 0.00 92 1011.8
20260902044720 15 47 0.0 0.0 0.00 0.00 0.00 92 1011.6
20260902044227 15 47 0.0 0.0 0.00 0.00 0.00 92 1011.7
20260902043734 15 47 0.0 0.0 0.00 0.00 0.00 92 1011.6
20260902043302 15 47 0.0 0.0 0.00 0.00 0.00 91 1011.7
20260902042737 15 47 0.0 0.0 0.00 0.00 0.00 91 1011.8
20260902042225 15 47 0.0 0.0 0.00 0.00 0.00 91 1011.8
20260902041811 15 46 0.0 0.0 0.00 0.00 0.00 91 1011.8
20260902041740 15 46 0.0 0.0 0.00 0.00 0.00 91 1011.8
20260902041226 15 47 0.0 0.0 0.00 0.00 0.00 91 1011.7
20260902040733 15 47 0.0 0.0 0.00 0.00 0.00 91 1011.7
20260902040224 15 47 0.0 0.0 0.00 0.00 0.00 91 1011.7
20260902035731 15 47 0.0 0.0 0.00 0.00 0.00 91 1011.7
20260902035239 15 46 0.0 0.0 0.00 0.00 0.00 91 1011.7
20260902034725 15 44 0.0 0.0 0.00 0.00 0.00 91 1011.7
20260902034232 15 44 0.0 0.0 0.00 0.00 0.00 90 1011.7
20260902033734 15 44 0.0 0.0 0.00 0.00 0.00 89 1011.8
20260902033257 15 44 0.0 0.0 0.00 0.00 0.00 89 1011.7
20260902032752 15 44 0.0 0.0 0.00 0.00 0.00 89 1011.7
20260902032720 15 44 0.0 0.0 0.00 0.00 0.00 89 1011.7
20260902032228 15 44 0.0 0.0 0.00 0.00 0.00 88 1011.7
20260902031734 15 44 0.0 0.0 0.00 0.00 0.00 87 1011.8
20260902031221 16 322 0.0 3.2 0.00 0.00 0.00 86 1011.7
20260902030728 16 281 0.0 3.2 0.00 0.00 0.00 85 1011.6
20260902030239 16 99 0.0 3.2 0.00 0.00 0.00 84 1011.6
20260902025806 16 46 0.0 3.2 0.00 0.00 0.00 83 1011.6
20260902025222 16 348 0.0 12.9 0.00 0.00 0.00 82 1011.5
20260902024727 16 148 1.6 12.9 0.00 0.00 0.00 80 1011.6
20260902024229 17 276 4.8 17.7 0.00 0.00 0.00 79 1011.5
20260902023736 17 327 4.8 16.1 0.00 0.00 0.00 77 1011.4
20260902023303 17 323 0.0 4.8 0.00 0.00 0.00 76 1011.2
20260902023231 17 323 0.0 4.8 0.00 0.00 0.00 76 1011.2
20260902022737 17 45 1.6 4.8 0.00 0.00 0.00 76 1011.2
20260902022225 17 145 0.0 3.2 0.00 0.00 0.00 77 1011.2
20260902021731 17 145 0.0 3.2 0.00 0.00 0.00 77 1011.2
20260902021238 17 70 0.0 3.2 0.00 0.00 0.00 77 1011.3
20260902020725 17 70 0.0 3.2 0.00 0.00 0.00 77 1011.4
20260902020236 17 55 0.0 3.2 0.00 0.00 0.00 77 1011.4
20260902015723 17 55 0.0 3.2 0.00 0.00 0.00 77 1011.2
20260902015311 17 55 0.0 3.2 0.00 0.00 0.00 77 1011.4
20260902014805 17 55 0.0 3.2 0.00 0.00 0.00 77 1011.4
20260902014733 17 55 0.0 3.2 0.00 0.00 0.00 77 1011.4
20260902014220 17 355 1.6 3.2 0.00 0.00 0.00 76 1011.4
20260902013727 17 268 0.0 3.2 0.00 0.00 0.00 76 1011.4
20260902013234 18 311 1.6 4.8 0.00 0.00 0.00 75 1011.5
20260902012721 18 265 1.6 4.8 0.00 0.00 0.00 74 1011.4
20260902012229 18 360 0.0 4.8 0.00 0.00 0.00 74 1011.4
20260902011734 18 167 0.0 8.0 0.00 0.00 0.00 74 1011.4
20260902011221 18 334 1.6 8.0 0.00 0.00 0.00 73 1011.5
20260902010728 18 331 1.6 6.4 0.00 0.00 0.00 73 1011.4
20260902010256 18 29 1.6 6.4 0.00 0.00 0.00 73 1011.4
20260902005735 18 273 1.6 6.4 0.00 0.00 0.00 73 1011.4
20260902005223 18 319 1.6 3.2 0.00 0.00 0.00 73 1011.4
20260902004730 18 124 0.0 6.4 0.00 0.00 0.00 73 1011.5
20260902004253 18 29 3.2 6.4 0.00 0.00 0.00 73 1011.4
20260902003728 18 292 0.0 3.2 0.00 0.00 0.00 74 1011.4
20260902003235 18 321 0.0 3.2 0.00 0.00 0.00 74 1011.5
20260902002722 18 183 1.6 3.2 0.00 0.00 0.00 74 1011.6
20260902002230 18 127 1.6 4.8 0.00 0.00 0.00 75 1011.6
20260902001736 18 351 1.6 4.8 0.00 0.00 0.00 75 1011.6
20260902001223 18 273 1.6 3.2 0.00 0.00 0.00 74 1011.5
20260902000810 18 284 0.0 6.4 0.00 0.00 0.00 74 1011.5
20260902000738 18 284 0.0 6.4 0.00 0.00 0.00 74 1011.5
20260902000226 18 100 1.6 6.4 0.00 0.00 0.00 74 1011.5
20260901235736 18 306 0.0 4.8 0.00 0.00 0.00 74 1011.5
20260901235239 18 314 0.0 4.8 0.00 0.00 0.00 74 1011.5
20260901234725 18 292 1.6 6.4 0.00 0.00 0.00 74 1011.6
20260901234232 18 304 1.6 4.8 0.00 0.00 0.00 74 1011.4
20260901233739 18 63 1.6 4.8 0.00 0.00 0.00 74 1011.5
20260901233221 18 336 1.6 4.8 0.00 0.00 0.00 74 1011.6
20260901232728 18 55 0.0 4.8 0.00 0.00 0.00 75 1011.5
20260901232235 18 248 0.0 4.8 0.00 0.00 0.00 75 1011.5
20260901231720 18 299 0.0 3.2 0.00 0.00 0.00 76 1011.6
20260901231307 17 24 1.6 3.2 0.00 0.00 0.00 76 1011.4
20260901231235 17 24 1.6 3.2 0.00 0.00 0.00 76 1011.4
20260901230742 17 160 1.6 4.8 0.00 0.00 0.00 76 1011.4
20260901230223 17 74 1.6 6.4 0.00 0.00 0.00 76 1011.5
20260901225730 17 292 1.6 6.4 0.00 0.00 0.00 76 1011.6
20260901225238 17 334 0.0 6.4 0.00 0.00 0.00 76 1011.6
20260901224724 17 159 0.0 6.4 0.00 0.00 0.00 76 1011.5
20260901224252 17 315 1.6 9.7 0.00 0.00 0.00 76 1011.6
20260901223807 17 295 1.6 9.7 0.00 0.00 0.00 76 1011.6
20260901223735 17 295 1.6 9.7 0.00 0.00 0.00 76 1011.6
20260901223222 17 115 0.0 4.8 0.00 0.00 0.00 76 1011.6
20260901222809 17 313 0.0 6.4 0.00 0.00 0.00 76 1011.7
20260901222306 17 57 1.6 6.4 0.00 0.00 0.00 76 1011.6
20260901221720 17 303 3.2 6.4 0.00 0.00 0.00 75 1011.7
20260901221227 17 205 1.6 4.8 0.00 0.00 0.00 76 1011.6
20260901220734 17 149 1.6 9.7 0.00 0.00 0.00 76 1011.6
20260901220221 18 285 4.8 9.7 0.00 0.00 0.00 74 1011.6
20260901215728 18 14 1.6 9.7 0.00 0.00 0.00 74 1011.4
20260901215256 18 283 3.2 11.3 0.00 0.00 0.00 75 1011.4
20260901215224 18 283 3.2 11.3 0.00 0.00 0.00 75 1011.4
20260901214257 18 52 1.6 12.9 0.00 0.00 0.00 75 1011.4
20260901213753 17 292 1.6 12.9 0.00 0.00 0.00 75 1011.4
20260901213232 18 265 4.8 12.9 0.00 0.00 0.00 74 1011.4
20260901212739 18 165 3.2 11.3 0.00 0.00 0.00 74 1011.5
20260901212227 18 235 1.6 9.7 0.00 0.00 0.00 74 1011.6
20260901211733 18 252 1.6 4.8 0.00 0.00 0.00 73 1011.6
20260901211220 18 276 1.6 6.4 0.00 0.00 0.00 74 1011.5
20260901210808 18 302 1.6 6.4 0.00 0.00 0.00 74 1011.7
20260901210304 18 262 3.2 6.4 0.00 0.00 0.00 74 1011.6
20260901205800 18 283 3.2 4.8 0.00 0.00 0.00 75 1011.4
20260901205236 18 302 1.6 3.2 0.00 0.00 0.00 75 1011.5
20260901204722 18 297 0.0 3.2 0.00 0.00 0.00 75 1011.6
20260901204229 18 301 1.6 3.2 0.00 0.00 0.00 75 1011.6
20260901203736 18 281 1.6 4.8 0.00 0.00 0.00 75 1011.6
20260901203303 18 153 1.6 4.8 0.00 0.00 0.00 76 1011.7
20260901203231 18 153 1.6 4.8 0.00 0.00 0.00 76 1011.7
20260901202759 17 66 1.6 4.8 0.00 0.00 0.00 76 1011.7
20260901202236 17 71 0.0 3.2 0.00 0.00 0.00 77 1011.7
20260901201801 17 57 0.0 3.2 0.00 0.00 0.00 77 1011.6
20260901201221 17 56 1.6 4.8 0.00 0.00 0.00 77 1011.6
20260901200728 17 74 1.6 4.8 0.00 0.00 0.00 77 1011.6
20260901200235 17 84 1.6 4.8 0.00 0.00 0.00 77 1011.6
20260901195722 17 85 3.2 6.4 0.00 0.00 0.00 77 1011.6
20260901195231 17 109 3.2 9.7 0.00 0.00 0.00 77 1011.6
20260901194736 17 92 3.2 9.7 0.00 0.00 0.00 76 1011.7
20260901194223 17 146 4.8 8.0 0.00 0.00 0.00 77 1011.7
20260901193730 17 74 4.8 8.0 0.00 0.00 0.00 77 1011.7
20260901193237 17 63 1.6 3.2 0.00 0.00 0.00 77 1011.8
20260901192724 17 84 0.0 4.8 0.00 0.00 0.00 78 1011.8
20260901192253 17 84 1.6 8.0 0.00 0.00 0.00 78 1011.7
20260901191731 17 80 1.6 8.0 0.00 0.00 0.00 77 1011.7
20260901191238 17 51 0.0 4.8 0.00 0.00 0.00 78 1011.8
20260901190806 17 80 1.6 8.0 0.00 0.00 0.00 77 1011.8
20260901190221 17 86 1.6 8.0 0.00 0.00 0.00 77 1011.8
20260901185728 17 86 1.6 9.7 0.00 0.00 0.00 78 1011.8
20260901185231 17 92 3.2 9.7 0.00 0.00 0.00 77 1011.8
20260901184757 17 78 3.2 9.7 0.00 0.00 0.00 76 1011.8
20260901184232 17 83 0.0 4.8 0.00 0.00 0.00 78 1011.9
20260901183739 17 83 0.0 4.8 0.00 0.00 0.00 77 1011.8
20260901183226 17 105 1.6 3.2 0.00 0.00 0.00 77 1011.8
20260901182732 17 236 1.6 3.2 0.00 0.00 0.00 78 1011.8
20260901182240 17 80 0.0 4.8 0.00 0.00 0.00 79 1011.7
20260901181730 17 74 1.6 4.8 0.00 0.00 0.00 79 1011.7
20260901181237 17 134 4.8 4.8 0.00 0.00 0.00 79 1011.7
20260901180805 17 76 3.2 4.8 0.00 0.00 0.00 80 1011.8
20260901180220 16 94 1.6 6.4 0.00 0.00 0.00 80 1011.7
20260901175727 16 130 1.6 4.8 0.00 0.00 0.00 80 1011.7
20260901175255 16 102 1.6 4.8 0.00 0.00 0.00 81 1011.7
20260901174729 16 169 0.0 8.0 0.00 0.00 0.00 81 1011.7
20260901174256 16 92 3.2 6.4 0.00 0.00 0.00 81 1011.7
20260901173732 16 199 1.6 4.8 0.00 0.00 0.00 81 1011.6
20260901173239 16 92 1.6 4.8 0.00 0.00 0.00 81 1011.6
20260901172726 16 63 3.2 4.8 0.00 0.00 0.00 81 1011.4
20260901172234 16 84 1.6 4.8 0.00 0.00 0.00 82 1011.5
20260901171800 16 86 0.0 3.2 0.00 0.00 0.00 82 1011.4
20260901171256 16 96 0.0 4.8 0.00 0.00 0.00 83 1011.4
20260901171225 16 96 0.0 4.8 0.00 0.00 0.00 83 1011.4
20260901170731 16 86 1.6 4.8 0.00 0.00 0.00 83 1011.4
20260901170222 16 93 1.6 4.8 0.00 0.00 0.00 83 1011.4
20260901165729 16 120 0.0 4.8 0.00 0.00 0.00 84 1011.3
20260901165257 15 149 1.6 4.8 0.00 0.00 0.00 84 1011.4
20260901165225 15 149 1.6 4.8 0.00 0.00 0.00 84 1011.4
20260901164731 15 196 1.6 4.8 0.00 0.00 0.00 84 1011.5
20260901164238 15 75 1.6 4.8 0.00 0.00 0.00 85 1011.6
20260901163806 15 182 1.6 4.8 0.00 0.00 0.00 85 1011.7
20260901163301 15 49 1.6 3.2 0.00 0.00 0.00 85 1011.8
20260901163229 15 49 1.6 3.2 0.00 0.00 0.00 85 1011.8
20260901162736 15 63 1.6 3.2 0.00 0.00 0.00 86 1011.8
20260901162224 15 101 0.0 4.8 0.00 0.00 0.00 87 1011.8
20260901161810 15 64 1.6 4.8 0.00 0.00 0.00 87 1011.8
20260901161226 15 42 1.6 3.2 0.00 0.00 0.00 87 1011.7
20260901160732 15 69 1.6 3.2 0.00 0.00 0.00 88 1011.8
20260901160259 14 130 1.6 4.8 0.00 0.00 0.00 88 1011.9
20260901155734 14 94 0.0 4.8 0.00 0.00 0.00 89 1011.8
20260901155222 14 73 0.0 4.8 0.00 0.00 0.00 90 1011.9
20260901154808 14 355 1.6 9.7 0.00 0.00 0.00 90 1012.0
20260901154737 14 355 1.6 9.7 0.00 0.00 0.00 90 1012.0
20260901154223 13 159 1.6 9.7 0.00 0.00 0.00 90 1012.0
20260901153811 13 36 0.0 1.6 0.00 0.00 0.00 91 1012.1
20260901153739 13 36 0.0 1.6 0.00 0.00 0.00 91 1012.1
20260901153230 13 82 0.0 3.2 0.00 0.00 0.00 91 1012.1
20260901152737 13 77 1.6 3.2 0.00 0.00 0.00 91 1012.0
20260901152306 13 71 0.0 3.2 0.00 0.00 0.00 92 1012.0
20260901152233 13 71 0.0 3.2 0.00 0.00 0.00 92 1012.0
20260901151739 13 69 1.6 3.2 0.00 0.00 0.00 92 1012.0
20260901151221 12 104 0.0 3.2 0.00 0.00 0.00 92 1012.0
20260901150728 12 104 0.0 3.2 0.00 0.00 0.00 93 1012.1
20260901150256 12 9 1.6 3.2 0.00 0.00 0.00 93 1011.9
20260901145811 12 43 0.0 3.2 0.00 0.00 0.00 93 1011.8
20260901145227 12 355 0.0 3.2 0.00 0.00 0.00 93 1011.8
20260901144753 12 340 0.0 0.0 0.00 0.00 0.00 93 1011.9
20260901144721 12 340 0.0 0.0 0.00 0.00 0.00 93 1011.9
20260901144228 12 340 0.0 0.0 0.00 0.00 0.00 93 1011.8
20260901143756 12 340 0.0 0.0 0.00 0.00 0.00 93 1011.7
20260901143310 11 340 0.0 0.0 0.00 0.00 0.00 94 1011.8
20260901142806 11 340 0.0 0.0 0.00 0.00 0.00 94 1011.7
20260901142305 11 340 0.0 0.0 0.00 0.00 0.00 94 1011.7
20260901141737 11 340 0.0 0.0 0.00 0.00 0.00 94 1011.6
20260901141224 11 340 0.0 0.0 0.00 0.00 0.00 93 1011.7
20260901140731 11 340 0.0 0.0 0.00 0.00 0.00 93 1011.6
20260901140238 11 340 0.0 0.0 0.00 0.00 0.00 93 1011.5
20260901135729 11 340 0.0 0.0 0.00 0.00 0.00 93 1011.4
20260901135232 11 340 0.0 0.0 0.00 0.00 0.00 93 1011.4
20260901134758 11 340 0.0 0.0 0.00 0.00 0.00 93 1011.3
20260901134233 11 340 0.0 0.0 0.00 0.00 0.00 93 1011.3
20260901133721 11 340 0.0 0.0 0.00 0.00 0.00 93 1011.3
20260901133227 11 340 0.0 0.0 0.00 0.00 0.00 93 1011.4
20260901132729 11 340 0.0 0.0 0.00 0.00 0.00 92 1011.4
20260901132257 11 340 0.0 0.0 0.00 0.00 0.00 92 1011.4
20260901131732 11 340 0.0 0.0 0.00 0.00 0.00 92 1011.3
20260901131259 11 340 0.0 0.0 0.00 0.00 0.00 92 1011.4
20260901131227 11 340 0.0 0.0 0.00 0.00 0.00 92 1011.4
20260901130734 11 340 0.0 0.0 0.00 0.00 0.00 92 1011.3
20260901130220 11 340 0.0 0.0 0.00 0.00 0.00 92 1011.2
20260901125727 11 340 0.0 0.0 0.00 0.00 0.00 92 1010.9
20260901125235 11 340 0.0 0.0 0.00 0.00 0.00 91 1011.0
20260901124725 11 340 0.0 0.0 0.00 0.00 0.00 91 1011.0
20260901124232 11 340 0.0 0.0 0.00 0.00 0.00 91 1011.0
20260901123739 11 340 0.0 0.0 0.00 0.00 0.00 91 1011.0
20260901123226 11 340 0.0 0.0 0.00 0.00 0.00 91 1011.0
20260901122733 12 340 0.0 0.0 0.00 0.00 0.00 92 1011.0
20260901122302 12 340 0.0 0.0 0.00 0.00 0.00 92 1010.9
20260901121736 12 340 0.0 0.0 0.00 0.00 0.00 93 1010.9
20260901121223 12 340 0.0 0.0 0.00 0.00 0.00 93 1010.8
20260901120730 12 340 0.0 0.0 0.00 0.00 0.00 93 1010.8
20260901120237 12 340 0.0 0.0 0.00 0.00 0.00 93 1010.9
20260901115804 11 340 0.0 0.0 0.00 0.00 0.00 93 1010.7
20260901115224 11 340 0.0 0.0 0.00 0.00 0.00 93 1010.8
20260901114730 11 340 0.0 0.0 0.00 0.00 0.00 93 1010.7
20260901114237 11 340 0.0 0.0 0.00 0.00 0.00 93 1010.5
20260901113724 11 340 0.0 0.0 0.00 0.00 0.00 92 1010.3
20260901113310 11 340 0.0 0.0 0.00 0.00 0.00 92 1010.3
20260901113238 11 340 0.0 0.0 0.00 0.00 0.00 92 1010.3
20260901112806 11 340 0.0 0.0 0.00 0.00 0.00 92 1010.3
20260901112734 11 340 0.0 0.0 0.00 0.00 0.00 92 1010.3
20260901112306 11 340 0.0 0.0 0.00 0.00 0.00 92 1010.2
20260901112230 11 340 0.0 0.0 0.00 0.00 0.00 92 1010.2
20260901111736 11 340 0.0 0.0 0.00 0.00 0.00 92 1010.3
20260901111223 11 340 0.0 0.0 0.00 0.00 0.00 92 1010.2
20260901110810 11 340 0.0 0.0 0.00 0.00 0.00 91 1010.2
20260901110226 11 340 0.0 0.0 0.00 0.00 0.00 91 1010.2
20260901105733 12 340 0.0 0.0 0.00 0.00 0.00 91 1010.2
20260901105221 12 340 0.0 0.0 0.00 0.00 0.00 91 1010.3
20260901104727 12 340 0.0 0.0 0.00 0.00 0.00 91 1010.3
20260901104234 12 340 0.0 0.0 0.00 0.00 0.00 91 1010.3
20260901103725 12 340 0.0 0.0 0.00 0.00 0.00 91 1010.2
20260901103232 12 340 0.0 0.0 0.00 0.00 0.00 91 1010.3
20260901102739 12 340 0.0 0.0 0.00 0.00 0.00 91 1010.2
20260901102308 12 340 0.0 0.0 0.00 0.00 0.00 90 1010.2
20260901101802 12 340 0.0 0.0 0.00 0.00 0.00 90 1010.2
20260901101237 12 340 0.0 0.0 0.00 0.00 0.00 91 1010.1